TimeEDT,TemperatureF,Dew PointF,Humidity,Sea Level PressureIn,VisibilityMPH,Wind Direction,Wind SpeedMPH,Gust SpeedMPH,PrecipitationIn,Events,Conditions,WindDirDegrees,DateUTC
12:53 AM,73.0,63.0,71,30.16,10.0,NNE,4.6,-,N/A,,Clear,30,2013-07-30 04:53:00
1:53 AM,72.0,64.9,78,30.17,10.0,NNE,4.6,-,N/A,,Mostly Cloudy,30,2013-07-30 05:53:00
2:53 AM,71.1,64.9,81,30.16,10.0,NNE,3.5,-,N/A,,Partly Cloudy,30,2013-07-30 06:53:00
3:53 AM,70.0,64.9,84,30.15,10.0,NE,3.5,-,N/A,,Clear,40,2013-07-30 07:53:00
4:53 AM,69.1,64.9,87,30.15,10.0,NNE,3.5,-,N/A,,Clear,30,2013-07-30 08:53:00
5:53 AM,69.1,64.9,87,30.16,10.0,Calm,Calm,-,N/A,,Mostly Cloudy,0,2013-07-30 09:53:00
6:53 AM,70.0,66.0,87,30.19,9.0,Calm,Calm,-,N/A,,Overcast,0,2013-07-30 10:53:00
7:53 AM,73.9,68.0,82,30.21,9.0,NNE,3.5,-,N/A,,Partly Cloudy,30,2013-07-30 11:53:00
8:53 AM,78.1,70.0,76,30.22,10.0,Variable,3.5,-,N/A,,Clear,0,2013-07-30 12:53:00
9:53 AM,80.1,68.0,67,30.21,10.0,ESE,5.8,-,N/A,,Clear,110,2013-07-30 13:53:00
10:53 AM,84.0,66.9,56,30.22,10.0,NE,5.8,-,N/A,,Clear,50,2013-07-30 14:53:00
11:53 AM,84.0,64.0,51,30.21,10.0,Variable,3.5,-,N/A,,Partly Cloudy,0,2013-07-30 15:53:00
12:53 PM,87.1,64.9,48,30.20,10.0,SSE,3.5,-,N/A,,Partly Cloudy,150,2013-07-30 16:53:00
1:53 PM,87.1,64.9,48,30.19,10.0,ENE,4.6,-,N/A,,Scattered Clouds,70,2013-07-30 17:53:00
2:53 PM,89.1,63.0,42,30.17,10.0,South,3.5,-,N/A,,Clear,180,2013-07-30 18:53:00
3:53 PM,87.1,64.9,48,30.14,10.0,Calm,Calm,-,N/A,,Partly Cloudy,0,2013-07-30 19:53:00
4:53 PM,87.1,64.9,48,30.14,10.0,Calm,Calm,-,N/A,,Partly Cloudy,0,2013-07-30 20:53:00
5:53 PM,86.0,63.0,46,30.14,10.0,Calm,Calm,-,N/A,,Overcast,0,2013-07-30 21:53:00
6:53 PM,79.0,70.0,74,30.14,10.0,Calm,Calm,-,N/A,,Clear,0,2013-07-30 22:53:00
7:53 PM,75.9,70.0,82,30.14,10.0,Calm,Calm,-,N/A,,Clear,0,2013-07-30 23:53:00
8:53 PM,73.0,68.0,84,30.15,10.0,Calm,Calm,-,N/A,,Clear,0,2013-07-31 00:53:00
9:53 PM,73.0,69.1,87,30.16,10.0,Calm,Calm,-,N/A,,Partly Cloudy,0,2013-07-31 01:53:00
10:53 PM,73.0,68.0,84,30.16,10.0,Calm,Calm,-,N/A,,Partly Cloudy,0,2013-07-31 02:53:00
11:53 PM,75.0,68.0,79,30.15,10.0,Calm,Calm,-,N/A,,Overcast,0,2013-07-31 03:53:00